Weather History for KNSE - October, 2013

Change the Weather History Date:

Wednesday, October 30, 2013

  Actual Average Record
Temperature  
Mean Temperature 68 °F -  
Max Temperature 82 °F 74 °F 86 °F (2000)
Min Temperature 54 °F 55 °F 37 °F (2008)
Cooling Degree Days 2    
Growing Degree Days 18 (Base 50)    
Moisture  
Dew Point 59 °F    
Average Humidity 79    
Maximum Humidity 93    
Minimum Humidity 52    
Precipitation  
Precipitation 0.00 in - - ()
Sea Level Pressure  
Sea Level Pressure 30.15 in    
Wind  
Wind Speed 3 mph (ESE)    
Max Wind Speed 12 mph    
Max Gust Speed -    
Visibility 7 miles    
Events      
Averages and records for this station are not official NWS values.
T = Trace of Precipitation, MM = Missing Value Source: NWS Daily Summary

Daily Weather History Graph

Daily Weather History Graph

Search for Another Location

Airport or City:

Trip Planner

Search our weather history database for the weather conditions in past years. The results will help you decide how hot, cold, wet, or windy it might be!

Date:

Astronomy

Oct. 30, 2013 Rise Set
Actual Time 7:01 AM CDT 6:01 PM CDT
Civil Twilight 6:36 AM CDT 6:26 PM CDT
Nautical Twilight 6:08 AM CDT 6:54 PM CDT
Astronomical Twilight 5:40 AM CDT 7:22 PM CDT
Moon 3:05 AM CDT (10/30) 3:32 PM CDT (10/30)
Length of Visible Light 11h 49m
Length of Day
10h 59m
Waning Crescent, 17% of the Moon is Illuminated
Oct 30
Waning Crescent
Nov 3
New
Nov 9
First Quarter
Nov 17
Full
Nov 25
Last Quarter

Hourly Weather History & Observations

Time (CDT) Temp. Heat Index Dew Point Humidity Pressure Visibility Wind Dir Wind Speed Gust Speed Precip Events Conditions
12:56 AM 57.0 °F - 54.0 °F 89% 30.19 in 7.0 mi Calm Calm - N/A   Overcast
1:56 AM 57.0 °F - 54.0 °F 89% 30.18 in 5.0 mi Calm Calm - N/A   Clear
2:56 AM 55.9 °F - 53.1 °F 90% 30.16 in 4.0 mi Calm Calm - N/A   Clear
3:56 AM 54.0 °F - 52.0 °F 93% 30.17 in 3.0 mi Calm Calm - N/A   Clear
4:56 AM 55.0 °F - 52.0 °F 89% 30.17 in 3.0 mi North 3.5 mph - N/A   Clear
5:56 AM 55.0 °F - 53.1 °F 93% 30.19 in 3.0 mi Calm Calm - N/A   Mostly Cloudy
6:56 AM 57.0 °F - 54.0 °F 89% 30.19 in 4.0 mi NE 3.5 mph - N/A   Mostly Cloudy
7:56 AM 60.1 °F - 57.0 °F 90% 30.20 in 4.0 mi ENE 3.5 mph - N/A   Mostly Cloudy
8:56 AM 64.0 °F - 60.1 °F 87% 30.20 in 7.0 mi East 5.8 mph - N/A   Mostly Cloudy
9:56 AM 71.1 °F - 63.0 °F 75% 30.20 in 8.0 mi ESE 6.9 mph - N/A   Mostly Cloudy
10:56 AM 77.0 °F - 64.9 °F 66% 30.19 in 9.0 mi ESE 6.9 mph - N/A   Mostly Cloudy
11:56 AM 80.1 °F 81.7 °F 64.0 °F 58% 30.19 in 10.0 mi ESE 6.9 mph - N/A   Mostly Cloudy
12:56 PM 80.1 °F 81.5 °F 63.0 °F 56% 30.16 in 10.0 mi SE 10.4 mph - N/A   Mostly Cloudy
1:56 PM 81.0 °F 81.9 °F 62.1 °F 52% 30.13 in 10.0 mi South 11.5 mph - N/A   Mostly Cloudy
2:56 PM 78.1 °F - 60.1 °F 54% 30.12 in 10.0 mi SSE 9.2 mph - N/A   Mostly Cloudy
3:56 PM 77.0 °F - 61.0 °F 58% 30.11 in 10.0 mi SSE 9.2 mph - N/A   Overcast
4:56 PM 75.0 °F - 62.1 °F 64% 30.09 in 10.0 mi SSE 6.9 mph - N/A   Overcast
5:56 PM 72.0 °F - 62.1 °F 71% 30.10 in 10.0 mi SSE 3.5 mph - N/A   Overcast
6:56 PM 69.1 °F - 62.1 °F 78% 30.10 in 10.0 mi SE 3.5 mph - N/A   Overcast
7:56 PM 64.0 °F - 60.1 °F 87% 30.11 in 9.0 mi Calm Calm - N/A   Mostly Cloudy
8:56 PM 64.0 °F - 61.0 °F 90% 30.11 in 9.0 mi East 4.6 mph - N/A   Mostly Cloudy
9:56 PM 64.9 °F - 62.1 °F 90% 30.10 in 7.0 mi East 5.8 mph - N/A   Mostly Cloudy
10:56 PM 64.9 °F - 62.1 °F 90% 30.09 in 7.0 mi East 4.6 mph - N/A   Mostly Cloudy
11:56 PM 64.0 °F - 61.0 °F 90% 30.07 in 7.0 mi Calm Calm - N/A   Mostly Cloudy